Terminal Aerodrome Forecast
Issued by NWS Charleston, WV

Current Version | Previous Version | Graphics & Text | Print | Product List | Glossary On
Versions: 1 2 3 4 5 6 7 8 9 10 11 12 13 14 15 16 17 18 19 20 21 22 23 24 25 26 27 28 29
000
FTUS41 KRLX 151459 AAG
TAFCRW
TAF AMD
KCRW 151459Z 1515/1612 00000KT P6SM OVC006
     FM151630 28003KT P6SM BKN015
     FM151800 29004KT P6SM SCT040
     FM160400 00000KT 4SM BR SCT001
     FM160700 00000KT 1/4SM FG VV001=

USA.gov is the U.S. government's official web portal to all federal, state and local government web resources and services.